"read_dt","SO2 (ppb)","flags","PMT voltage (V)","lamp voltage (V)","lamp intensity (Hz)","internal temp (C)","react chamber temp (C)","sample flow (l/min)","pres (mmHg)","SO2 bkg (ppb)","SO2 coefficient"
2017-02-09 00:00:00,2744E-3,5C000000,-0724,0838,12104,028.0,045.5,0.438,751.7,01.17,0.508
2017-02-09 00:01:00,2673E-3,5C000000,-0724,0838,11932,027.9,045.4,0.437,751.8,01.17,0.508
2017-02-09 00:02:00,2630E-3,5C000000,-0724,0838,12078,028.0,045.5,0.438,751.7,01.17,0.508
2017-02-09 00:03:00,2595E-3,5C000000,-0724,0840,12066,028.0,045.5,0.438,751.7,01.17,0.508
2017-02-09 00:04:00,2661E-3,5C000000,-0724,0839,12070,028.1,045.5,0.437,751.7,01.17,0.508
2017-02-09 00:05:00,2576E-3,5C000000,-0724,0839,12080,028.2,045.5,0.437,751.7,01.17,0.508
2017-02-09 00:06:00,2675E-3,5C000000,-0724,0839,12104,028.3,045.5,0.438,751.7,01.17,0.508
2017-02-09 00:07:00,2749E-3,5C000000,-0724,0839,12098,028.3,045.5,0.437,751.7,01.17,0.508
2017-02-09 00:08:00,2755E-3,5C000000,-0724,0838,11974,028.3,045.4,0.437,751.7,01.17,0.508
2017-02-09 00:09:00,2762E-3,5C000000,-0724,0839,12122,028.3,045.4,0.438,751.8,01.17,0.508
2017-02-09 00:10:00,2746E-3,5C000000,-0724,0839,12080,028.3,045.4,0.437,751.8,01.17,0.508
2017-02-09 00:11:00,2833E-3,5C000000,-0724,0839,11947,028.3,045.4,0.437,751.8,01.17,0.508
2017-02-09 00:12:00,2733E-3,5C000000,-0724,0838,12067,028.2,045.4,0.438,751.8,01.17,0.508
2017-02-09 00:13:00,2880E-3,5C000000,-0724,0838,12048,028.1,045.5,0.437,751.8,01.17,0.508
2017-02-09 00:14:00,2982E-3,5C000000,-0724,0839,12048,028.0,045.4,0.437,751.8,01.17,0.508
2017-02-09 00:15:00,2849E-3,5C000000,-0724,0838,11967,028.0,045.5,0.438,751.8,01.17,0.508
2017-02-09 00:16:00,2811E-3,5C000000,-0724,0839,12058,028.1,045.5,0.438,751.8,01.17,0.508
2017-02-09 00:17:00,2972E-3,5C000000,-0724,0839,12057,028.1,045.4,0.437,751.8,01.17,0.508
2017-02-09 00:18:00,2983E-3,5C000000,-0724,0839,12059,028.2,045.4,0.437,751.8,01.17,0.508
2017-02-09 00:19:00,2882E-3,5C000000,-0724,0839,12000,028.2,045.5,0.438,751.8,01.17,0.508
2017-02-09 00:20:00,2836E-3,5C000000,-0724,0839,12115,028.2,045.4,0.438,751.8,01.17,0.508
2017-02-09 00:21:00,2780E-3,5C000000,-0724,0839,12153,028.2,045.4,0.437,751.8,01.17,0.508
2017-02-09 00:22:00,2880E-3,5C000000,-0724,0838,12126,028.2,045.4,0.438,751.8,01.17,0.508
2017-02-09 00:23:00,2861E-3,5C000000,-0724,0838,11954,028.2,045.5,0.438,751.8,01.17,0.508
2017-02-09 00:24:00,2873E-3,5C000000,-0724,0839,12077,028.1,045.5,0.437,751.7,01.17,0.508
2017-02-09 00:25:00,2814E-3,5C000000,-0724,0839,12063,028.0,045.5,0.437,751.8,01.17,0.508
2017-02-09 00:26:00,2931E-3,5C000000,-0724,0839,12153,028.0,045.4,0.438,751.8,01.17,0.508
2017-02-09 00:27:00,2906E-3,5C000000,-0724,0838,11996,028.0,045.4,0.437,751.8,01.17,0.508
2017-02-09 00:28:00,2782E-3,5C000000,-0724,0839,12151,028.0,045.5,0.437,751.8,01.17,0.508
2017-02-09 00:29:00,2935E-3,5C000000,-0724,0838,12047,028.1,045.5,0.438,751.7,01.17,0.508
2017-02-09 00:30:00,2904E-3,5C000000,-0724,0839,11914,028.2,045.4,0.438,751.7,01.17,0.508
2017-02-09 00:31:00,2830E-3,5C000000,-0724,0839,12057,028.2,045.5,0.437,751.7,01.17,0.508
2017-02-09 00:32:00,2760E-3,5C000000,-0724,0839,12060,028.3,045.5,0.437,751.7,01.17,0.508
2017-02-09 00:33:00,2855E-3,5C000000,-0724,0839,11988,028.3,045.5,0.438,751.7,01.17,0.508
2017-02-09 00:34:00,2895E-3,5C000000,-0724,0839,11885,028.3,045.5,0.437,751.7,01.17,0.508
2017-02-09 00:35:00,2925E-3,5C000000,-0724,0839,12041,028.3,045.4,0.437,751.7,01.17,0.508
2017-02-09 00:36:00,3044E-3,5C000000,-0724,0839,12028,028.2,045.4,0.438,751.7,01.17,0.508
2017-02-09 00:37:00,3108E-3,5C000000,-0724,0838,11923,028.2,045.5,0.437,751.7,01.17,0.508
2017-02-09 00:38:00,2907E-3,5C000000,-0724,0838,12007,028.1,045.5,0.437,751.7,01.17,0.508
2017-02-09 00:39:00,2992E-3,5C000000,-0724,0839,12014,028.0,045.5,0.438,751.8,01.17,0.508
2017-02-09 00:40:00,3000E-3,5C000000,-0724,0838,12142,028.0,045.4,0.437,751.8,01.17,0.508
2017-02-09 00:41:00,2906E-3,5C000000,-0724,0839,12001,028.0,045.5,0.437,751.8,01.17,0.508
2017-02-09 00:42:00,3036E-3,5C000000,-0724,0838,11762,028.1,045.5,0.438,751.7,01.17,0.508
2017-02-09 00:43:00,2988E-3,5C000000,-0724,0839,11976,028.1,045.5,0.438,751.8,01.17,0.508
2017-02-09 00:44:00,2874E-3,5C000000,-0724,0839,12066,028.1,045.4,0.437,751.7,01.17,0.508
2017-02-09 00:45:00,3052E-3,5C000000,-0724,0839,12009,028.2,045.5,0.437,751.7,01.17,0.508
2017-02-09 00:46:00,2816E-3,5C000000,-0724,0839,11972,028.1,045.4,0.438,751.7,01.17,0.508
2017-02-09 00:47:00,2858E-3,5C000000,-0724,0838,12040,028.1,045.4,0.437,751.7,01.17,0.508
2017-02-09 00:48:00,2905E-3,5C000000,-0724,0838,11966,028.1,045.4,0.437,751.7,01.17,0.508
2017-02-09 00:49:00,2909E-3,5C000000,-0724,0839,12011,028.1,045.4,0.438,751.7,01.17,0.508
2017-02-09 00:50:00,2898E-3,5C000000,-0724,0840,12008,028.1,045.5,0.438,751.7,01.17,0.508
2017-02-09 00:51:00,2896E-3,5C000000,-0724,0838,12053,028.1,045.5,0.437,751.7,01.17,0.508
2017-02-09 00:52:00,3005E-3,5C000000,-0724,0839,12084,028.1,045.5,0.438,751.7,01.17,0.508
2017-02-09 00:53:00,2892E-3,5C000000,-0724,0838,12100,028.1,045.5,0.438,751.7,01.17,0.508
2017-02-09 00:54:00,2974E-3,5C000000,-0724,0839,12015,028.1,045.4,0.437,751.7,01.17,0.508
2017-02-09 00:55:00,3059E-3,5C000000,-0724,0838,11883,028.1,045.5,0.437,751.8,01.17,0.508
2017-02-09 00:56:00,2873E-3,5C000000,-0724,0839,12026,028.1,045.5,0.438,751.8,01.17,0.508
2017-02-09 00:57:00,2858E-3,5C000000,-0724,0838,11925,028.0,045.4,0.437,751.8,01.17,0.508
2017-02-09 00:58:00,3039E-3,5C000000,-0724,0839,11951,028.0,045.4,0.437,751.8,01.17,0.508
2017-02-09 00:59:00,2917E-3,5C000000,-0724,0839,11928,028.0,045.5,0.438,751.8,01.17,0.508
2017-02-09 01:00:00,3044E-3,5C000000,-0724,0838,12026,028.0,045.5,0.438,751.8,01.17,0.508
2017-02-09 01:01:00,3066E-3,5C000000,-0724,0838,12102,028.0,045.4,0.437,751.9,01.17,0.508
2017-02-09 01:02:00,3032E-3,5C000000,-0724,0839,12122,028.0,045.5,0.438,751.8,01.17,0.508
2017-02-09 01:03:00,2825E-3,5C000000,-0724,0839,12113,028.0,045.5,0.438,751.8,01.17,0.508
2017-02-09 01:04:00,2939E-3,5C000000,-0724,0839,11949,028.0,045.4,0.437,751.8,01.17,0.508
2017-02-09 01:05:00,2949E-3,5C000000,-0724,0838,12137,028.1,045.5,0.437,751.8,01.17,0.508
2017-02-09 01:06:00,2846E-3,5C000000,-0724,0838,12040,028.1,045.5,0.438,751.8,01.17,0.508
2017-02-09 01:07:00,2810E-3,5C000000,-0724,0838,12041,028.1,045.5,0.438,751.8,01.17,0.508
2017-02-09 01:08:00,2916E-3,5C000000,-0724,0839,12039,028.2,045.5,0.437,751.8,01.17,0.508
2017-02-09 01:09:00,2786E-3,5C000000,-0724,0838,11963,028.2,045.5,0.438,751.8,01.17,0.508
2017-02-09 01:10:00,2786E-3,5C000000,-0724,0839,11969,028.2,045.4,0.438,751.8,01.17,0.508
2017-02-09 01:11:00,2805E-3,5C000000,-0724,0838,12082,028.2,045.4,0.437,751.8,01.17,0.508
2017-02-09 01:12:00,2998E-3,5C000000,-0724,0838,12048,028.2,045.4,0.438,751.8,01.17,0.508
2017-02-09 01:13:00,2928E-3,5C000000,-0724,0839,11920,028.1,045.5,0.437,751.8,01.17,0.508
2017-02-09 01:14:00,2837E-3,5C000000,-0724,0839,12031,028.0,045.5,0.437,751.8,01.17,0.508
2017-02-09 01:15:00,2826E-3,5C000000,-0724,0839,12076,028.0,045.4,0.438,751.8,01.17,0.508
2017-02-09 01:16:00,2752E-3,5C000000,-0724,0839,11985,028.1,045.4,0.438,751.8,01.17,0.508
2017-02-09 01:17:00,2870E-3,5C000000,-0724,0839,12092,028.1,045.4,0.437,751.8,01.17,0.508
2017-02-09 01:18:00,3013E-3,5C000000,-0724,0838,12063,028.1,045.4,0.438,751.8,01.17,0.508
2017-02-09 01:19:00,2822E-3,5C000000,-0724,0839,11971,028.2,045.5,0.438,751.8,01.17,0.508
2017-02-09 01:20:00,2817E-3,5C000000,-0724,0839,12097,028.1,045.5,0.437,751.8,01.17,0.508
2017-02-09 01:21:00,2815E-3,5C000000,-0724,0839,11969,028.1,045.5,0.437,751.8,01.17,0.508
2017-02-09 01:22:00,2892E-3,5C000000,-0724,0839,12048,028.1,045.5,0.438,751.8,01.17,0.508
2017-02-09 01:23:00,2958E-3,5C000000,-0724,0839,12055,028.1,045.5,0.437,751.8,01.17,0.508
2017-02-09 01:24:00,2836E-3,5C000000,-0724,0839,11973,028.1,045.4,0.437,751.8,01.17,0.508
2017-02-09 01:25:00,3072E-3,5C000000,-0724,0839,11870,028.1,045.5,0.438,751.8,01.17,0.508
2017-02-09 01:26:00,2991E-3,5C000000,-0724,0838,12072,028.0,045.5,0.437,751.8,01.17,0.508
2017-02-09 01:27:00,2897E-3,5C000000,-0724,0840,11900,028.0,045.4,0.437,751.8,01.17,0.508
2017-02-09 01:28:00,2971E-3,5C000000,-0724,0840,12006,028.0,045.4,0.438,751.8,01.17,0.508
2017-02-09 01:29:00,2957E-3,5C000000,-0724,0839,12016,028.0,045.5,0.438,751.8,01.17,0.508
2017-02-09 01:30:00,2944E-3,5C000000,-0724,0839,12161,028.1,045.5,0.437,751.7,01.17,0.508
2017-02-09 01:31:00,2892E-3,5C000000,-0724,0838,12012,028.1,045.5,0.438,751.7,01.17,0.508
2017-02-09 01:32:00,2719E-3,5C000000,-0724,0840,12155,028.2,045.5,0.438,751.7,01.17,0.508
2017-02-09 01:33:00,2891E-3,5C000000,-0724,0839,12097,028.2,045.5,0.437,751.7,01.17,0.508
2017-02-09 01:34:00,2900E-3,5C000000,-0724,0839,11982,028.2,045.5,0.437,751.7,01.17,0.508
2017-02-09 01:35:00,2959E-3,5C000000,-0724,0839,12090,028.2,045.4,0.438,751.7,01.17,0.508
2017-02-09 01:36:00,2815E-3,5C000000,-0724,0839,12120,028.1,045.4,0.437,751.7,01.17,0.508
2017-02-09 01:37:00,2928E-3,5C000000,-0724,0839,12024,028.1,045.5,0.438,751.7,01.17,0.508
2017-02-09 01:38:00,2816E-3,5C000000,-0724,0839,12041,028.0,045.5,0.438,751.7,01.17,0.508
2017-02-09 01:39:00,2837E-3,5C000000,-0724,0839,12017,028.0,045.4,0.437,751.7,01.17,0.508
2017-02-09 01:40:00,2914E-3,5C000000,-0724,0838,12020,028.0,045.4,0.438,751.7,01.17,0.508
2017-02-09 01:41:00,2800E-3,5C000000,-0724,0839,12061,028.0,045.4,0.438,751.7,01.17,0.508
2017-02-09 01:42:00,2751E-3,5C000000,-0724,0839,11989,027.9,045.5,0.437,751.7,01.17,0.508
2017-02-09 01:43:00,2843E-3,5C000000,-0724,0839,11995,027.9,045.4,0.437,751.6,01.17,0.508
2017-02-09 01:44:00,2723E-3,5C000000,-0724,0839,11957,028.0,045.5,0.438,751.6,01.17,0.508
2017-02-09 01:45:00,2975E-3,5C000000,-0724,0838,12083,028.0,045.4,0.438,751.6,01.17,0.508
2017-02-09 01:46:00,2755E-3,5C000000,-0724,0839,12141,028.0,045.4,0.437,751.6,01.17,0.508
2017-02-09 01:47:00,2970E-3,5C000000,-0724,0839,12041,028.1,045.5,0.437,751.6,01.17,0.508
2017-02-09 01:48:00,2949E-3,5C000000,-0724,0839,12018,028.2,045.5,0.438,751.6,01.17,0.508
2017-02-09 01:49:00,2959E-3,5C000000,-0724,0839,12145,028.2,045.5,0.438,751.6,01.17,0.508
2017-02-09 01:50:00,3099E-3,5C000000,-0724,0839,12075,028.3,045.5,0.437,751.6,01.17,0.508
2017-02-09 01:51:00,2975E-3,5C000000,-0724,0839,11927,028.3,045.5,0.438,751.6,01.17,0.508
2017-02-09 01:52:00,2909E-3,5C000000,-0724,0839,12082,028.3,045.5,0.437,751.6,01.17,0.508
2017-02-09 01:53:00,3017E-3,5C000000,-0724,0839,11870,028.3,045.4,0.437,751.6,01.17,0.508
2017-02-09 01:54:00,2983E-3,5C000000,-0724,0839,11979,028.2,045.4,0.438,751.6,01.17,0.508
2017-02-09 01:55:00,2897E-3,5C000000,-0724,0839,12147,028.2,045.5,0.437,751.6,01.17,0.508
2017-02-09 01:56:00,3121E-3,5C000000,-0724,0839,12087,028.2,045.5,0.437,751.6,01.17,0.508
2017-02-09 01:57:00,3008E-3,5C000000,-0724,0838,12066,028.0,045.4,0.438,751.6,01.17,0.508
2017-02-09 01:58:00,3106E-3,5C000000,-0724,0839,12062,028.0,045.5,0.437,751.6,01.17,0.508
2017-02-09 01:59:00,3029E-3,5C000000,-0724,0839,11986,028.1,045.5,0.437,751.6,01.17,0.508
2017-02-09 02:00:00,3001E-3,5C000000,-0724,0839,11914,028.2,045.5,0.438,751.6,01.17,0.508
2017-02-09 02:01:00,2952E-3,5C000000,-0724,0839,12002,028.2,045.5,0.437,751.6,01.17,0.508
2017-02-09 02:02:00,3118E-3,5C000000,-0724,0839,12037,028.3,045.5,0.437,751.6,01.17,0.508
2017-02-09 02:03:00,2991E-3,5C000000,-0724,0839,11946,028.3,045.5,0.438,751.6,01.17,0.508
2017-02-09 02:04:00,2991E-3,5C000000,-0724,0838,12027,028.2,045.4,0.437,751.6,01.17,0.508
2017-02-09 02:05:00,3072E-3,5C000000,-0724,0839,12136,028.2,045.5,0.437,751.6,01.17,0.508
2017-02-09 02:06:00,2934E-3,5C000000,-0724,0838,11939,028.1,045.5,0.438,751.6,01.17,0.508
2017-02-09 02:07:00,3177E-3,5C000000,-0724,0839,12003,028.0,045.4,0.437,751.6,01.17,0.508
2017-02-09 02:08:00,3170E-3,5C000000,-0724,0838,12118,028.0,045.5,0.437,751.6,01.17,0.508
2017-02-09 02:09:00,3219E-3,5C000000,-0724,0839,11942,028.0,045.4,0.438,751.6,01.17,0.508
2017-02-09 02:10:00,3061E-3,5C000000,-0724,0839,12117,028.1,045.4,0.438,751.6,01.17,0.508
2017-02-09 02:11:00,3107E-3,5C000000,-0724,0839,12079,028.1,045.5,0.437,751.6,01.17,0.508
2017-02-09 02:12:00,2914E-3,5C000000,-0724,0839,11986,028.2,045.4,0.438,751.6,01.17,0.508
2017-02-09 02:13:00,3024E-3,5C000000,-0724,0839,12059,028.2,045.5,0.438,751.5,01.17,0.508
2017-02-09 02:14:00,2981E-3,5C000000,-0724,0839,11929,028.2,045.5,0.437,751.5,01.17,0.508
2017-02-09 02:15:00,2829E-3,5C000000,-0724,0839,12057,028.2,045.5,0.438,751.6,01.17,0.508
2017-02-09 02:16:00,3106E-3,5C000000,-0724,0839,11947,028.1,045.5,0.437,751.5,01.17,0.508
2017-02-09 02:17:00,3006E-3,5C000000,-0724,0840,12038,028.1,045.5,0.437,751.5,01.17,0.508
2017-02-09 02:18:00,2999E-3,5C000000,-0724,0839,11968,028.0,045.5,0.438,751.5,01.17,0.508
2017-02-09 02:19:00,3019E-3,5C000000,-0724,0839,12032,028.1,045.4,0.437,751.5,01.17,0.508
2017-02-09 02:20:00,3017E-3,5C000000,-0724,0838,12153,028.2,045.5,0.437,751.5,01.17,0.508
2017-02-09 02:21:00,3034E-3,5C000000,-0724,0839,12074,028.2,045.4,0.438,751.5,01.17,0.508
2017-02-09 02:22:00,3046E-3,5C000000,-0724,0839,12171,028.2,045.5,0.437,751.5,01.17,0.508
2017-02-09 02:23:00,3035E-3,5C000000,-0724,0839,11776,028.2,045.5,0.437,751.5,01.17,0.508
2017-02-09 02:24:00,2991E-3,5C000000,-0724,0839,12069,028.2,045.4,0.438,751.5,01.17,0.508
2017-02-09 02:25:00,2970E-3,5C000000,-0724,0838,12051,028.1,045.4,0.437,751.4,01.17,0.508
2017-02-09 02:26:00,2904E-3,5C000000,-0724,0838,12160,028.1,045.4,0.437,751.4,01.17,0.508
2017-02-09 02:27:00,3054E-3,5C000000,-0724,0839,12104,028.1,045.4,0.438,751.4,01.17,0.508
2017-02-09 02:28:00,2969E-3,5C000000,-0724,0839,12044,028.0,045.5,0.437,751.4,01.17,0.508
2017-02-09 02:29:00,3072E-3,5C000000,-0724,0839,12020,028.0,045.4,0.438,751.4,01.17,0.508
2017-02-09 02:30:00,2942E-3,5C000000,-0724,0839,12119,028.1,045.5,0.438,751.4,01.17,0.508
2017-02-09 02:31:00,3063E-3,5C000000,-0724,0839,12059,028.1,045.4,0.437,751.5,01.17,0.508
2017-02-09 02:32:00,2912E-3,5C000000,-0724,0839,12076,028.2,045.5,0.437,751.4,01.17,0.508
2017-02-09 02:33:00,3065E-3,5C000000,-0724,0839,12014,028.1,045.4,0.438,751.4,01.17,0.508
2017-02-09 02:34:00,2929E-3,5C000000,-0724,0838,12111,028.1,045.5,0.437,751.4,01.17,0.508
2017-02-09 02:35:00,3093E-3,5C000000,-0724,0839,12097,028.1,045.5,0.438,751.4,01.17,0.508
2017-02-09 02:36:00,3124E-3,5C000000,-0724,0839,12060,028.1,045.5,0.438,751.4,01.17,0.508
2017-02-09 02:37:00,3060E-3,5C000000,-0724,0838,12083,028.1,045.4,0.437,751.5,01.17,0.508
2017-02-09 02:38:00,3092E-3,5C000000,-0724,0838,12048,028.0,045.4,0.438,751.5,01.17,0.508
2017-02-09 02:39:00,3082E-3,5C000000,-0724,0839,12003,028.0,045.5,0.438,751.5,01.17,0.508
2017-02-09 02:40:00,2974E-3,5C000000,-0724,0839,12036,028.1,045.4,0.437,751.5,01.17,0.508
2017-02-09 02:41:00,3017E-3,5C000000,-0724,0838,12094,028.0,045.4,0.438,751.4,01.17,0.508
2017-02-09 02:42:00,2670E-3,5C000000,-0724,0839,11985,028.0,045.5,0.437,751.5,01.17,0.508
2017-02-09 02:43:00,2718E-3,5C000000,-0724,0838,12158,028.0,045.5,0.437,751.5,01.17,0.508
2017-02-09 02:44:00,2782E-3,5C000000,-0724,0838,11970,028.0,045.5,0.438,751.5,01.17,0.508
2017-02-09 02:45:00,2603E-3,5C000000,-0724,0839,12122,028.0,045.5,0.437,751.5,01.17,0.508
2017-02-09 02:46:00,2773E-3,5C000000,-0724,0838,12193,028.0,045.4,0.437,751.5,01.17,0.508
2017-02-09 02:47:00,2697E-3,5C000000,-0724,0839,12098,028.0,045.4,0.438,751.5,01.17,0.508
2017-02-09 02:48:00,2716E-3,5C000000,-0724,0837,12137,028.0,045.4,0.437,751.5,01.17,0.508
2017-02-09 02:49:00,2703E-3,5C000000,-0724,0838,12090,028.0,045.5,0.438,751.4,01.17,0.508
2017-02-09 02:50:00,2788E-3,5C000000,-0724,0839,12174,028.0,045.5,0.438,751.5,01.17,0.508
2017-02-09 02:51:00,2639E-3,5C000000,-0724,0838,12084,028.0,045.5,0.437,751.4,01.17,0.508
2017-02-09 02:52:00,2596E-3,5C000000,-0724,0838,11889,028.0,045.5,0.438,751.4,01.17,0.508
2017-02-09 02:53:00,2865E-3,5C000000,-0724,0838,12096,028.0,045.5,0.438,751.4,01.17,0.508
2017-02-09 02:54:00,2766E-3,5C000000,-0724,0839,12102,028.0,045.5,0.437,751.4,01.17,0.508
2017-02-09 02:55:00,2701E-3,5C000000,-0724,0838,12020,028.0,045.4,0.438,751.4,01.17,0.508
2017-02-09 02:56:00,2851E-3,5C000000,-0724,0839,12092,028.0,045.5,0.438,751.4,01.17,0.508
2017-02-09 02:57:00,2651E-3,5C000000,-0724,0839,12010,028.1,045.5,0.437,751.4,01.17,0.508
2017-02-09 02:58:00,2857E-3,5C000000,-0724,0839,12069,028.1,045.5,0.438,751.4,01.17,0.508
2017-02-09 02:59:00,2820E-3,5C000000,-0724,0839,12109,028.1,045.5,0.437,751.3,01.17,0.508
2017-02-09 03:00:00,2732E-3,5C000000,-0724,0838,12094,028.1,045.4,0.438,751.3,01.17,0.508
2017-02-09 03:01:00,3055E-3,5C000000,-0724,0839,12025,028.1,045.5,0.438,751.4,01.17,0.508
2017-02-09 03:02:00,2965E-3,5C000000,-0724,0839,11949,028.1,045.4,0.437,751.4,01.17,0.508
2017-02-09 03:03:00,2893E-3,5C000000,-0724,0839,12032,028.1,045.4,0.438,751.4,01.17,0.508
2017-02-09 03:04:00,2877E-3,5C000000,-0724,0838,11956,028.1,045.5,0.437,751.4,01.17,0.508
2017-02-09 03:05:00,2803E-3,5C000000,-0724,0839,12031,028.1,045.5,0.438,751.4,01.17,0.508
2017-02-09 03:06:00,2865E-3,5C000000,-0724,0839,12222,028.1,045.5,0.438,751.4,01.17,0.508
2017-02-09 03:07:00,2827E-3,5C000000,-0724,0838,12026,028.1,045.5,0.437,751.4,01.17,0.508
2017-02-09 03:08:00,2729E-3,5C000000,-0724,0839,12073,028.1,045.4,0.438,751.4,01.17,0.508
2017-02-09 03:09:00,2811E-3,5C000000,-0724,0839,12136,028.1,045.5,0.437,751.4,01.17,0.508
2017-02-09 03:10:00,2984E-3,5C000000,-0724,0838,12048,028.1,045.5,0.437,751.4,01.17,0.508
2017-02-09 03:11:00,2871E-3,5C000000,-0724,0839,12017,028.0,045.4,0.438,751.4,01.17,0.508
2017-02-09 03:12:00,3023E-3,5C000000,-0724,0839,12017,028.0,045.4,0.437,751.4,01.17,0.508
2017-02-09 03:13:00,3009E-3,5C000000,-0724,0839,11994,028.0,045.4,0.438,751.3,01.17,0.508
2017-02-09 03:14:00,2845E-3,5C000000,-0724,0839,11956,028.0,045.4,0.438,751.3,01.17,0.508
2017-02-09 03:15:00,2793E-3,5C000000,-0724,0838,12075,028.1,045.5,0.437,751.3,01.17,0.508
2017-02-09 03:16:00,3047E-3,5C000000,-0724,0839,11955,028.2,045.5,0.438,751.3,01.17,0.508
2017-02-09 03:17:00,2995E-3,5C000000,-0724,0837,11957,028.2,045.5,0.437,751.3,01.17,0.508
2017-02-09 03:18:00,2955E-3,5C000000,-0724,0838,12179,028.2,045.5,0.437,751.3,01.17,0.508
2017-02-09 03:19:00,2930E-3,5C000000,-0724,0839,12076,028.2,045.5,0.438,751.3,01.17,0.508
2017-02-09 03:20:00,2921E-3,5C000000,-0724,0839,11941,028.2,045.5,0.437,751.3,01.17,0.508
2017-02-09 03:21:00,3127E-3,5C000000,-0724,0838,12094,028.1,045.5,0.438,751.3,01.17,0.508
2017-02-09 03:22:00,3030E-3,5C000000,-0724,0838,12020,028.1,045.5,0.437,751.3,01.17,0.508
2017-02-09 03:23:00,2837E-3,5C000000,-0724,0837,12058,028.0,045.4,0.438,751.3,01.17,0.508
2017-02-09 03:24:00,2768E-3,5C000000,-0724,0838,12052,027.9,045.4,0.438,751.3,01.17,0.508
2017-02-09 03:25:00,2892E-3,5C000000,-0724,0839,11981,028.0,045.5,0.437,751.3,01.17,0.508
2017-02-09 03:26:00,2961E-3,5C000000,-0724,0839,12058,028.1,045.5,0.438,751.3,01.17,0.508
2017-02-09 03:27:00,3087E-3,5C000000,-0724,0838,11997,028.1,045.5,0.437,751.3,01.17,0.508
2017-02-09 03:28:00,2893E-3,5C000000,-0724,0838,12062,028.2,045.5,0.437,751.3,01.17,0.508
2017-02-09 03:29:00,3005E-3,5C000000,-0724,0839,12027,028.2,045.5,0.438,751.3,01.17,0.508
2017-02-09 03:30:00,2946E-3,5C000000,-0724,0839,11948,028.2,045.5,0.437,751.3,01.17,0.508
2017-02-09 03:31:00,2877E-3,5C000000,-0724,0839,12135,028.2,045.5,0.438,751.3,01.17,0.508
2017-02-09 03:32:00,2955E-3,5C000000,-0724,0840,11983,028.2,045.5,0.437,751.3,01.17,0.508
2017-02-09 03:33:00,2961E-3,5C000000,-0724,0838,12123,028.1,045.4,0.437,751.3,01.17,0.508
2017-02-09 03:34:00,3078E-3,5C000000,-0724,0839,12031,028.1,045.5,0.438,751.3,01.17,0.508
2017-02-09 03:35:00,2994E-3,5C000000,-0724,0837,11984,028.0,045.5,0.437,751.3,01.17,0.508
2017-02-09 03:36:00,2845E-3,5C000000,-0724,0839,11943,028.0,045.5,0.438,751.3,01.17,0.508
2017-02-09 03:37:00,2921E-3,5C000000,-0724,0838,12031,028.0,045.4,0.438,751.3,01.17,0.508
2017-02-09 03:38:00,2966E-3,5C000000,-0724,0838,11950,028.0,045.4,0.437,751.3,01.17,0.508
2017-02-09 03:39:00,3103E-3,5C000000,-0724,0838,12011,028.0,045.5,0.438,751.3,01.17,0.508
2017-02-09 03:40:00,2946E-3,5C000000,-0724,0838,12117,028.0,045.5,0.438,751.3,01.17,0.508
2017-02-09 03:41:00,2955E-3,5C000000,-0724,0839,11992,028.0,045.4,0.437,751.3,01.17,0.508
2017-02-09 03:42:00,3017E-3,5C000000,-0724,0839,12118,028.1,045.5,0.438,751.3,01.17,0.508
2017-02-09 03:43:00,2912E-3,5C000000,-0724,0839,11974,028.1,045.5,0.437,751.3,01.17,0.508
2017-02-09 03:44:00,3018E-3,5C000000,-0724,0838,11986,028.1,045.5,0.437,751.3,01.17,0.508
2017-02-09 03:45:00,2961E-3,5C000000,-0724,0839,12138,028.2,045.5,0.438,751.3,01.17,0.508
2017-02-09 03:46:00,2941E-3,5C000000,-0724,0839,12122,028.1,045.5,0.437,751.3,01.17,0.508
2017-02-09 03:47:00,2893E-3,5C000000,-0724,0839,12026,028.1,045.5,0.438,751.3,01.17,0.508
2017-02-09 03:48:00,2894E-3,5C000000,-0724,0838,12060,028.0,045.4,0.438,751.4,01.17,0.508
2017-02-09 03:49:00,2943E-3,5C000000,-0724,0839,12086,027.9,045.4,0.437,751.4,01.17,0.508
2017-02-09 03:50:00,3009E-3,5C000000,-0724,0838,11996,028.0,045.4,0.438,751.4,01.17,0.508
2017-02-09 03:51:00,2998E-3,5C000000,-0724,0838,12078,028.0,045.5,0.437,751.3,01.17,0.508
2017-02-09 03:52:00,2945E-3,5C000000,-0724,0838,12079,028.1,045.5,0.437,751.3,01.17,0.508
2017-02-09 03:53:00,2828E-3,5C000000,-0724,0839,12195,028.2,045.5,0.438,751.3,01.17,0.508
2017-02-09 03:54:00,2881E-3,5C000000,-0724,0838,12127,028.2,045.5,0.437,751.3,01.17,0.508
2017-02-09 03:55:00,2951E-3,5C000000,-0724,0839,12027,028.1,045.4,0.438,751.3,01.17,0.508
2017-02-09 03:56:00,2806E-3,5C000000,-0724,0839,12122,028.1,045.5,0.437,751.3,01.17,0.508
2017-02-09 03:57:00,2925E-3,5C000000,-0724,0839,12067,028.1,045.4,0.437,751.3,01.17,0.508
2017-02-09 03:58:00,2963E-3,5C000000,-0724,0838,12056,028.1,045.5,0.438,751.3,01.17,0.508
2017-02-09 03:59:00,2869E-3,5C000000,-0724,0839,12080,028.1,045.4,0.437,751.3,01.17,0.508
2017-02-09 04:00:00,2809E-3,5C000000,-0724,0838,12032,028.0,045.5,0.438,751.3,01.17,0.508
2017-02-09 04:01:00,2925E-3,5C000000,-0724,0839,12034,028.0,045.5,0.437,751.3,01.17,0.508
2017-02-09 04:02:00,2870E-3,5C000000,-0724,0838,12074,028.0,045.5,0.437,751.3,01.17,0.508
2017-02-09 04:03:00,2961E-3,5C000000,-0724,0838,12073,028.0,045.5,0.438,751.3,01.17,0.508
2017-02-09 04:04:00,2858E-3,5C000000,-0724,0839,12039,028.0,045.5,0.437,751.2,01.17,0.508
2017-02-09 04:05:00,3056E-3,5C000000,-0724,0839,12128,028.0,045.5,0.438,751.2,01.17,0.508
2017-02-09 04:06:00,2918E-3,5C000000,-0724,0839,12169,028.0,045.4,0.438,751.2,01.17,0.508
2017-02-09 04:07:00,2932E-3,5C000000,-0724,0839,12154,028.0,045.5,0.437,751.2,01.17,0.508
2017-02-09 04:08:00,2921E-3,5C000000,-0724,0838,11889,027.9,045.5,0.438,751.2,01.17,0.508
2017-02-09 04:09:00,2898E-3,5C000000,-0724,0839,11919,027.9,045.5,0.438,751.2,01.17,0.508
2017-02-09 04:10:00,2990E-3,5C000000,-0724,0839,11986,027.9,045.5,0.437,751.3,01.17,0.508
2017-02-09 04:11:00,2889E-3,5C000000,-0724,0839,12070,027.9,045.4,0.438,751.3,01.17,0.508
2017-02-09 04:12:00,2954E-3,5C000000,-0724,0838,11988,027.9,045.4,0.437,751.2,01.17,0.508
2017-02-09 04:13:00,2909E-3,5C000000,-0724,0839,12137,028.0,045.5,0.438,751.2,01.17,0.508
2017-02-09 04:14:00,2779E-3,5C000000,-0724,0839,12007,028.0,045.5,0.438,751.2,01.17,0.508
2017-02-09 04:15:00,2995E-3,5C000000,-0724,0839,12074,028.1,045.5,0.437,751.2,01.17,0.508
2017-02-09 04:16:00,3022E-3,5C000000,-0724,0839,12138,028.1,045.5,0.438,751.2,01.17,0.508
2017-02-09 04:17:00,3053E-3,5C000000,-0724,0839,12043,028.1,045.4,0.437,751.2,01.17,0.508
2017-02-09 04:18:00,3011E-3,5C000000,-0724,0839,12157,028.1,045.4,0.437,751.2,01.17,0.508
2017-02-09 04:19:00,3010E-3,5C000000,-0724,0839,12029,028.0,045.5,0.438,751.3,01.17,0.508
2017-02-09 04:20:00,3028E-3,5C000000,-0724,0839,12004,028.0,045.5,0.437,751.2,01.17,0.508